sat.trackr.live / text

‹ back to catalog

UNKNOWN

NORAD 81865

UNKNOWN UNKNOWN UNKNOWN

§ Identity

Operator
Country
Launch date
Launch site
Launch vehicle
Mass (kg)
RCS (m²)

External: N2YO · Heavens-Above

§ Orbital elements

Epoch: 2026-05-24T02:40:28.194816Z

Period
103.71 min
Inclination
82.8036°
Eccentricity
0.0060723
Mean motion
13.88444945 rev/d
Perigee alt
889.7 km
Apogee alt
978.5 km
Semi-major
7,312.2 km
B*
9.1671e-4
RAAN
263.2681°
Arg perigee
261.0586°
Mean anomaly
278.3182°
Rev number
63,107

§ Raw data

UNKNOWN1 81865U          26144.11143744  .00001130  00000+0  91671-3 0  99912 81865  82.8036 263.2681 0060723 261.0586 278.3182 13.88444945631079

JSON: /api/v1/satellites/81865 · /tle

For live sub-satellite position, see the globe view (requires WebGL).

§ Visibility from observer

Set your observer location to see the next 7 days of passes ≥ 10°. The values pass through the URL so the page stays shareable.

No JS? Fill the form by hand. The geolocation button needs JavaScript.